Location: *
(48.4333°N, 5.0333°W)
Time: 02:35:23
(UTC+00:00)

LilacSat-2 - Pass Details

Date: 01 November 2021
Orbit: 511 x 532 km, 97.5° (Epoch: 03 December)

Event Time Altitude Azimuth Distance (km) Brightness Sun altitude
Rises 18:15:53 0° 204° (SSW) 2,627 ? -12.9°
Reaches altitude 10° 18:18:32 10° 225° (SW) 1,742 ? -13.4°
Maximum altitude 18:21:07 18° 268° (W) 1,334 ? -13.8°
Drops below altitude 10° 18:23:42 10° 312° (NW) 1,747 ? -14.2°
Sets 18:26:22 0° 332° (NNW) 2,638 ? -14.6°
